Theta_e
323 323 321 321 329 331 333 333 333 329 321 319 319 322 325 319 316 314 311 321 317 322 317 315 307 304 304 305 306 309 315 318 318 319 322 324 325 325
312 315 318 319 314 324 320 330 328 328 321 314 310 311 314 314 317 313 309 310 311 308 306 303 303 303 304 303 302 302 302 306 315 316 318 322 324 325
305 304 307 307 312 315 316 314 317 319 319 308 308 308 309 309 309 312 307 306 305 306 306 306 306 305 304 302 300 300 301 303 308 314 317 318 321 323
302 301 300 301 303 307 312 313 308 306 303 301 302 303 304 305 305 305 304 304 305 304 304 305 305 304 303 300 299 300 300 301 303 305 310 315 318 318
298 299 297 298 297 297 298 300 302 301 302 300 298 296 296 296 299 299 297 298 298 298 298 299 300 300 301 301 300 301 302 302 301 301 303 305 314 317
291 292 294 294 295 298 296 293 292 293 294 294 292 292 293 293 293 293 293 293 293 293 293 294 295 296 298 302 303 303 303 303 302 300 300 301 303 309
286 285 284 285 287 290 290 289 290 290 290 290 291 290 290 291 290 290 290 290 290 290 290 290 291 292 297 301 302 302 303 303 301 300 298 298 299 301
284 284 283 283 284 285 286 286 286 287 288 288 287 287 287 287 286 286 287 287 288 288 289 290 289 290 290 291 291 291 292 296 297 297 298 298 297 298
284 284 284 284 284 283 283 283 283 283 283 283 284 284 285 285 284 285 285 285 286 286 286 287 288 289 289 290 290 290 292 292 294 297 296 297 296 297
283 283 284 284 284 284 285 284 285 284 284 284 285 284 284 284 284 284 284 285 285 286 285 285 286 286 287 289 291 291 294 294 296 294 295 296 297 296
283 282 283 283 284 285 285 285 285 285 285 285 285 285 285 285 285 285 286 286 286 287 286 285 286 286 286 287 286 290 291 291 294 295 295 295 296 296
282 282 282 283 283 284 284 284 285 284 285 285 286 286 286 285 285 285 284 285 283 286 285 285 287 285 286 288 291 290 291 290 290 293 293 295 296 295
281 281 281 282 283 283 284 284 284 284 285 285 285 286 286 286 285 285 284 284 284 284 285 283 285 286 285 286 286 287 287 288 288 289 290 290 292 295
281 280 281 281 282 282 283 283 283 284 285 285 285 286 286 286 286 285 285 285 284 285 286 284 284 284 284 285 286 287 287 288 288 288 288 288 289 289
281 281 281 282 282 282 283 283 283 284 284 284 284 284 284 284 285 285 285 285 285 285 285 285 284 284 284 284 284 287 287 288 288 289 289 289 289 289
282 282 282 281 281 281 282 282 282 282 283 283 283 284 284 285 285 285 285 286 286 287 286 286 285 284 285 285 285 286 287 287 288 289 290 290 288 291
281 282 282 282 282 282 282 282 283 283 283 283 283 283 284 284 284 284 284 285 285 286 287 287 286 286 286 286 287 288 288 288 288 289 289 290 289 291
283 282 282 281 281 281 282 282 282 282 281 282 282 282 283 283 283 284 284 284 284 286 287 287 287 288 288 289 288 288 288 288 289 290 290 290 290 290
282 281 280 280 279 279 280 280 281 280 280 281 281 281 281 282 283 283 283 283 285 285 286 286 287 286 284 285 288 288 287 288 288 288 289 288 290 290
282 280 279 279 279 279 279 279 280 281 281 281 281 282 281 281 283 283 283 284 285 286 288 288 287 286 284 284 283 289 290 289 289 289 289 290 291 290
279 279 278 278 278 278 279 279 279 281 281 282 282 282 283 283 284 284 285 285 285 286 287 288 288 288 288 287 287 289 290 290 289 289 289 290 290 290
279 279 279 279 279 279 279 281 282 281 282 283 284 284 284 284 285 285 286 286 286 287 288 288 289 289 289 288 289 288 290 291 290 290 290 290 289 290
279 279 279 279 278 279 280 281 280 281 282 283 284 284 285 285 285 286 286 287 287 288 288 288 289 289 289 289 290 290 290 290 290 290 290 290 290 289
Wind_Speed
7 14 17 5 23 35 40 37 47 27 23 31 26 27 30 25 21 17 14 16 14 17 23 28 27 26 27 25 24 25 26 27 27 26 24 23 20 20
6 3 8 13 2 16 17 44 27 34 26 33 26 28 24 20 16 11 6 10 14 20 23 23 23 23 21 21 21 18 19 24 25 26 25 23 21 22
30 29 23 17 19 14 11 16 15 27 44 35 28 24 22 15 12 11 8 11 14 15 15 16 17 17 16 18 18 18 18 18 20 23 24 24 22 22
27 28 30 26 24 19 13 14 22 29 32 30 20 18 14 11 10 9 12 15 16 16 17 18 18 17 18 18 18 18 18 18 17 20 21 24 22 25
24 24 26 25 28 26 22 21 19 16 21 15 12 10 9 8 8 9 10 13 14 15 17 19 20 19 19 19 21 21 19 19 23 22 22 23 26 26
27 26 25 25 23 21 19 19 16 13 12 10 7 6 4 5 1 4 8 10 11 12 15 16 18 20 21 21 21 22 21 22 23 24 24 24 25 27
27 27 28 24 20 18 16 14 11 9 9 7 6 7 7 7 8 11 13 14 13 12 14 13 14 16 21 24 24 24 26 25 25 26 26 28 25 26
29 28 27 25 21 17 17 16 13 11 10 8 8 9 11 11 12 14 17 18 16 11 22 20 18 16 15 17 21 24 24 27 31 32 31 30 28 25
30 28 26 26 22 19 17 17 17 16 15 12 12 11 12 13 15 16 16 16 18 18 23 25 20 19 17 16 15 14 13 19 27 31 31 29 31 26
29 29 27 25 23 21 19 19 19 17 16 15 12 10 10 10 11 12 13 15 16 15 16 20 21 23 21 17 13 13 12 10 15 22 26 25 25 24
27 27 26 24 22 20 20 20 18 18 16 14 12 11 10 9 11 11 13 16 18 17 9 14 21 25 24 17 11 13 14 15 14 16 20 24 22 19
25 26 25 24 22 21 22 21 20 19 17 14 12 11 10 11 12 13 13 14 13 15 9 22 22 22 15 8 3 11 15 17 19 23 22 24 24 23
24 25 23 23 22 20 19 19 19 17 16 15 15 14 13 13 14 13 13 13 14 16 17 18 20 21 16 22 27 25 23 20 20 23 27 27 25 26
26 23 20 19 18 18 17 17 16 16 16 16 16 16 16 17 17 16 16 15 15 17 17 14 18 19 21 27 29 28 27 27 27 27 27 29 30 28
22 20 18 16 15 15 16 16 17 18 18 19 19 19 19 20 20 20 18 18 18 17 14 13 16 18 21 26 29 33 31 32 27 30 29 28 25 28
21 20 19 17 16 17 18 19 21 21 21 21 21 22 22 23 23 23 24 24 23 19 16 14 16 18 23 26 29 34 32 31 29 29 30 30 28 28
23 23 22 22 20 21 21 22 23 23 23 22 23 24 24 24 22 23 22 23 24 26 23 18 17 19 22 24 29 29 29 28 25 26 27 28 29 30
25 26 26 26 25 25 25 25 24 24 23 22 22 22 23 23 23 22 22 22 24 23 23 22 23 24 23 22 18 19 19 22 22 22 24 28 31 28
28 28 28 27 27 26 27 27 28 26 25 24 24 24 23 23 24 25 24 24 24 25 25 25 23 22 25 30 29 19 19 22 27 28 29 28 28 28
31 31 30 30 29 29 29 29 29 28 28 27 26 26 26 26 25 25 25 25 26 26 26 24 24 24 25 28 33 30 20 24 22 24 26 26 28 23
34 32 30 29 29 29 30 29 29 30 30 29 27 26 25 25 25 25 26 26 27 28 29 26 23 22 24 25 29 31 24 20 20 21 23 26 24 21
34 32 30 29 30 30 30 30 31 31 29 28 27 26 25 25 26 26 27 28 28 28 28 27 24 22 22 24 28 29 28 24 19 19 21 22 22 18
34 33 31 31 31 30 30 32 32 31 30 29 28 27 26 26 26 27 27 27 27 27 27 28 26 24 24 24 23 27 26 23 20 18 19 16 17 21
Wind_Direction
294 290 355 88 198 212 217 211 211 187 170 162 152 166 178 176 168 176 192 201 217 228 237 243 246 249 251 254 260 260 258 256 258 260 261 259 260 264
63 34 273 280 294 198 197 212 209 197 168 168 156 163 169 182 188 192 203 221 232 236 238 243 246 250 255 255 252 257 260 258 258 257 256 256 255 261
72 73 79 92 98 96 84 84 122 145 159 147 148 154 166 173 183 198 230 234 228 227 234 239 244 251 259 266 269 259 262 263 261 263 258 258 255 261
59 58 64 66 72 77 88 73 81 104 111 112 132 142 161 177 202 214 229 237 242 245 247 252 257 259 262 266 268 265 266 266 263 261 263 259 257 257
52 50 51 51 55 58 61 65 74 88 101 114 97 106 124 147 187 219 232 238 242 246 251 252 253 253 255 256 258 263 264 265 260 258 258 257 250 253
52 52 50 47 43 39 47 57 65 72 86 89 78 80 85 78 110 247 253 261 261 258 255 253 251 250 248 246 248 253 260 267 276 274 271 265 260 252
49 54 56 56 48 39 43 52 57 63 70 63 34 13 7 5 344 323 312 306 308 293 280 273 267 256 252 254 254 253 256 260 267 270 274 271 264 260
52 53 57 63 68 67 59 56 49 43 55 42 26 14 4 358 338 335 329 327 330 304 306 300 302 286 271 264 262 262 256 254 256 263 268 276 275 266
47 48 49 53 57 61 64 64 60 53 52 50 39 23 2 352 342 335 329 326 317 319 316 312 318 311 301 285 280 279 273 262 256 257 263 274 283 279
46 40 42 43 42 44 52 54 54 50 45 41 36 28 14 358 345 341 330 324 320 336 317 308 319 313 303 295 298 280 266 287 282 263 254 262 274 275
41 39 35 35 32 36 41 46 46 46 41 37 31 22 11 354 346 340 336 346 348 356 339 332 329 322 325 323 293 272 260 260 276 285 265 260 267 280
36 32 32 28 24 25 28 30 33 28 28 31 28 22 14 3 353 351 344 345 347 342 322 328 330 337 330 354 208 293 272 281 285 272 275 269 258 265
31 27 25 22 20 20 21 23 23 15 17 16 16 12 9 4 359 349 344 338 324 307 322 316 312 313 301 297 306 312 308 296 285 273 273 276 270 254
25 21 18 19 20 19 22 21 17 14 12 11 7 5 1 356 351 343 336 330 319 313 315 304 294 299 296 295 292 298 301 299 298 293 285 274 270 271
21 16 12 12 18 21 23 19 16 15 9 5 1 358 353 347 344 336 332 329 324 327 322 310 296 293 284 281 284 290 293 292 295 296 300 289 279 268
15 15 16 19 22 26 23 20 16 11 5 358 353 352 347 345 345 339 336 335 328 330 330 321 306 295 290 286 286 284 282 275 293 292 294 297 287 285
17 20 19 19 19 18 17 12 8 3 360 356 351 347 345 343 343 342 339 336 333 330 330 331 322 309 299 295 293 292 293 288 286 293 295 290 285 286
20 22 21 19 17 11 5 4 3 360 356 352 350 345 342 342 342 344 342 338 333 332 329 333 330 323 316 311 312 312 298 292 297 296 289 288 288 288
20 19 17 14 10 6 3 360 357 356 352 352 350 348 346 345 344 343 342 338 334 332 331 332 333 330 321 313 317 314 300 289 284 285 284 282 282 288
20 15 12 9 6 3 0 358 356 355 355 354 353 352 350 346 344 342 340 339 336 334 331 334 335 329 317 307 304 307 309 301 290 288 287 278 280 286
16 14 11 7 5 2 360 357 356 357 356 354 354 352 350 345 344 343 340 338 335 334 330 331 332 324 320 314 304 307 312 311 301 280 284 282 281 283
15 12 10 8 7 2 359 358 358 356 354 353 353 353 351 348 343 341 339 336 334 331 329 328 330 325 320 316 309 310 313 308 298 285 272 261 259 258
14 12 10 11 8 2 1 1 358 355 354 352 352 351 349 346 343 341 340 339 337 334 333 329 331 331 325 320 314 311 308 305 299 292 284 280 267 263